When you browse on this site, cookies collect data to enhance your experience and personalize the content and advertising you see.
Visit our Privacy Policy to learn more. By continuing to use the site, you agree to this use of cookies and data.
  • In Czech Republic
  • List of Countries
  • For 7 days
  • Water Temperature
  • Weather Map
  • Weather Widgets
  • user-avatar
    Login

    Hourly Weather Schleswig

    Today, 21 October, Monday

    Time Temperature Precipitation Wind Pressure Humidity
    00:00 +10°C° 0 mm 2 mps 758 mmHg 93%
    01:00 +10°C° 0 mm 3 mps 758 mmHg 93%
    02:00 +10°C° 0.2 mm 3 mps 758 mmHg 93%
    03:00 +10°C° 0.2 mm 4 mps 758 mmHg 93%
    04:00 +11°C° 0.2 mm 4 mps 757 mmHg 93%
    05:00 +11°C° 0.8 mm 4 mps 758 mmHg 94%
    06:00 +11°C° 0.8 mm 4 mps 759 mmHg 95%
    07:00 +11°C° 0.8 mm 4 mps 759 mmHg 96%
    08:00 +11°C° 0.5 mm 4 mps 759 mmHg 95%
    09:00 +10°C° 0.5 mm 5 mps 760 mmHg 95%
    10:00 +11°C° 0.5 mm 6 mps 760 mmHg 95%
    11:00 +12°C° 0 mm 5 mps 760 mmHg 94%
    12:00 +13°C° 0 mm 5 mps 760 mmHg 92%
    13:00 +14°C° 0 mm 5 mps 760 mmHg 91%
    14:00 +14°C° 0 mm 4 mps 760 mmHg 92%
    15:00 +14°C° 0 mm 3 mps 760 mmHg 93%
    16:00 +15°C° 0 mm 2 mps 759 mmHg 93%
    17:00 +14°C° 0 mm 2 mps 760 mmHg 94%
    18:00 +14°C° 0 mm 2 mps 760 mmHg 95%
    19:00 +13°C° 0 mm 2 mps 760 mmHg 95%
    20:00 +13°C° 0 mm 2 mps 760 mmHg 94%
    21:00 +12°C° 0 mm 3 mps 760 mmHg 93%
    22:00 +12°C° 0 mm 3 mps 760 mmHg 92%
    23:00 +11°C° 0 mm 3 mps 761 mmHg 92%

    Tomorrow, 22 October, Tuesday

    Time Temperature Precipitation Wind Pressure Humidity
    00:00 +11°C° 0 mm 4 mps 761 mmHg 92%
    01:00 +10°C° 0 mm 4 mps 761 mmHg 93%
    02:00 +10°C° 0 mm 4 mps 761 mmHg 93%
    03:00 +10°C° 0 mm 4 mps 761 mmHg 93%
    04:00 +8°C° 0 mm 5 mps 761 mmHg 94%
    05:00 +9°C° 0 mm 5 mps 761 mmHg 93%
    06:00 +9°C° 0 mm 5 mps 761 mmHg 93%
    07:00 +10°C° 0 mm 5 mps 761 mmHg 92%
    08:00 +12°C° 0 mm 5 mps 761 mmHg 91%
    09:00 +11°C° 0 mm 6 mps 762 mmHg 89%
    10:00 +13°C° 0 mm 6 mps 762 mmHg 88%
    11:00 +13°C° 0.1 mm 6 mps 762 mmHg 87%
    12:00 +13°C° 0.1 mm 5 mps 763 mmHg 86%
    13:00 +13°C° 0.1 mm 5 mps 763 mmHg 85%
    14:00 +13°C° 0 mm 5 mps 763 mmHg 84%
    15:00 +13°C° 0 mm 4 mps 763 mmHg 83%
    16:00 +12°C° 0 mm 4 mps 763 mmHg 82%
    17:00 +11°C° 0 mm 4 mps 763 mmHg 85%
    18:00 +10°C° 0 mm 4 mps 764 mmHg 87%
    19:00 +9°C° 0 mm 3 mps 764 mmHg 90%
    20:00 +9°C° 0 mm 3 mps 764 mmHg 88%
    21:00 +10°C° 0 mm 3 mps 764 mmHg 87%
    22:00 +10°C° 0 mm 3 mps 764 mmHg 85%
    23:00 +9°C° 0 mm 3 mps 764 mmHg 86%

    Day after tomorrow, 23 October, Wednesday

    Time Temperature Precipitation Wind Pressure Humidity
    00:00 +9°C° 0 mm 3 mps 764 mmHg 87%
    01:00 +8°C° 0 mm 3 mps 764 mmHg 87%
    02:00 +8°C° 0 mm 3 mps 763 mmHg 89%
    03:00 +8°C° 0 mm 3 mps 763 mmHg 91%
    04:00 +7°C° 0 mm 2 mps 763 mmHg 92%
    05:00 +7°C° 0 mm 2 mps 763 mmHg 93%
    06:00 +7°C° 0 mm 2 mps 763 mmHg 94%
    07:00 +7°C° 0 mm 2 mps 763 mmHg 94%
    08:00 +8°C° 0 mm 2 mps 763 mmHg 91%
    09:00 +9°C° 0 mm 2 mps 762 mmHg 87%
    10:00 +10°C° 0 mm 2 mps 762 mmHg 84%
    11:00 +12°C° 0 mm 2 mps 762 mmHg 80%
    12:00 +13°C° 0 mm 2 mps 762 mmHg 77%
    13:00 +13°C° 0 mm 2 mps 762 mmHg 74%
    14:00 +13°C° 0 mm 2 mps 761 mmHg 77%
    15:00 +13°C° 0 mm 2 mps 760 mmHg 80%
    16:00 +13°C° 0 mm 2 mps 760 mmHg 83%
    17:00 +12°C° 0 mm 2 mps 759 mmHg 87%
    18:00 +10°C° 0 mm 3 mps 759 mmHg 90%
    19:00 +9°C° 0 mm 3 mps 759 mmHg 94%
    20:00 +10°C° 0 mm 4 mps 758 mmHg 94%
    21:00 +10°C° 0 mm 4 mps 758 mmHg 93%
    22:00 +10°C° 0 mm 4 mps 757 mmHg 92%
    23:00 +10°C° 0 mm 4 mps 757 mmHg 93%

    24 October, Thursday

    Time Temperature Precipitation Wind Pressure Humidity
    00:00 +10°C° 0 mm 4 mps 756 mmHg 94%
    01:00 +10°C° 0 mm 4 mps 756 mmHg 94%
    02:00 +10°C° 0 mm 4 mps 756 mmHg 95%
    03:00 +10°C° 0 mm 4 mps 755 mmHg 95%
    04:00 +10°C° 0 mm 4 mps 755 mmHg 96%
    05:00 +10°C° 0 mm 4 mps 755 mmHg 96%
    06:00 +10°C° 0 mm 4 mps 754 mmHg 96%
    07:00 +10°C° 0 mm 4 mps 754 mmHg 96%
    08:00 +11°C° 0 mm 4 mps 754 mmHg 94%
    09:00 +12°C° 0 mm 4 mps 754 mmHg 92%
    10:00 +13°C° 0 mm 4 mps 754 mmHg 89%
    11:00 +14°C° 0 mm 4 mps 754 mmHg 87%
    12:00 +15°C° 0 mm 4 mps 754 mmHg 85%
    13:00 +17°C° 0 mm 4 mps 753 mmHg 83%
    14:00 +16°C° 0 mm 3 mps 753 mmHg 85%
    15:00 +16°C° 0 mm 2 mps 753 mmHg 87%
    16:00 +16°C° 0 mm 2 mps 753 mmHg 89%
    17:00 +15°C° 0 mm 2 mps 753 mmHg 92%
    18:00 +14°C° 0 mm 2 mps 753 mmHg 94%
    19:00 +12°C° 0 mm 3 mps 753 mmHg 96%
    20:00 +12°C° 0 mm 3 mps 753 mmHg 96%
    21:00 +13°C° 0 mm 3 mps 753 mmHg 96%
    22:00 +13°C° 0 mm 4 mps 754 mmHg 95%
    23:00 +13°C° 0 mm 4 mps 754 mmHg 94%

    25 October, Friday

    Time Temperature Precipitation Wind Pressure Humidity
    00:00 +13°C° 0 mm 4 mps 754 mmHg 92%
    01:00 +13°C° 0 mm 4 mps 754 mmHg 90%
    02:00 +13°C° 0 mm 5 mps 754 mmHg 89%
    03:00 +12°C° 0 mm 5 mps 754 mmHg 88%
    04:00 +11°C° 0 mm 6 mps 754 mmHg 87%
    05:00 +11°C° 0 mm 6 mps 755 mmHg 87%
    06:00 +11°C° 0 mm 6 mps 755 mmHg 86%
    07:00 +11°C° 0 mm 7 mps 755 mmHg 86%
    08:00 +11°C° 0 mm 7 mps 756 mmHg 82%
    09:00 +12°C° 0 mm 8 mps 757 mmHg 78%
    10:00 +12°C° 0 mm 8 mps 758 mmHg 74%
    11:00 +12°C° 0 mm 8 mps 758 mmHg 72%
    12:00 +12°C° 0 mm 8 mps 759 mmHg 70%
    13:00 +12°C° 0 mm 9 mps 760 mmHg 67%
    14:00 +11°C° 0 mm 8 mps 760 mmHg 68%
    15:00 +10°C° 0 mm 7 mps 760 mmHg 69%
    16:00 +10°C° 0 mm 6 mps 761 mmHg 70%
    17:00 +9°C° 0 mm 5 mps 761 mmHg 73%
    18:00 +8°C° 0 mm 4 mps 761 mmHg 76%
    19:00 +8°C° 0 mm 3 mps 761 mmHg 79%
    20:00 +7°C° 0 mm 4 mps 760 mmHg 80%
    21:00 +7°C° 0 mm 4 mps 760 mmHg 81%
    22:00 +7°C° 0 mm 5 mps 760 mmHg 82%
    23:00 +8°C° 0 mm 5 mps 759 mmHg 81%

    26 October, Saturday

    Time Temperature Precipitation Wind Pressure Humidity
    00:00 +8°C° 0 mm 6 mps 758 mmHg 80%
    01:00 +9°C° 0 mm 7 mps 757 mmHg 79%
    02:00 +9°C° 0 mm 8 mps 756 mmHg 77%
    03:00 +10°C° 0 mm 9 mps 756 mmHg 75%
    04:00 +10°C° 0 mm 9 mps 755 mmHg 73%
    05:00 +9°C° 0.1 mm 10 mps 755 mmHg 76%
    06:00 +11°C° 0.1 mm 10 mps 755 mmHg 78%
    07:00 +11°C° 0.1 mm 10 mps 754 mmHg 81%
    08:00 +11°C° 0.1 mm 9 mps 755 mmHg 81%
    09:00 +10°C° 0.1 mm 8 mps 756 mmHg 82%
    10:00 +10°C° 0.1 mm 6 mps 757 mmHg 82%
    11:00 +10°C° 0 mm 6 mps 757 mmHg 79%
    12:00 +10°C° 0 mm 6 mps 758 mmHg 76%
    13:00 +10°C° 0 mm 6 mps 759 mmHg 73%
    14:00 +9°C° 0 mm 5 mps 759 mmHg 72%
    15:00 +9°C° 0 mm 5 mps 760 mmHg 71%
    16:00 +8°C° 0 mm 4 mps 760 mmHg 70%
    17:00 +8°C° 0 mm 4 mps 761 mmHg 71%
    18:00 +7°C° 0 mm 4 mps 761 mmHg 71%
    19:00 +8°C° 0 mm 3 mps 761 mmHg 71%
    20:00 +8°C° 0 mm 3 mps 762 mmHg 72%
    21:00 +8°C° 0 mm 3 mps 762 mmHg 73%
    22:00 +8°C° 0 mm 3 mps 762 mmHg 74%
    23:00 +7°C° 0 mm 3 mps 762 mmHg 75%

    27 October, Sunday

    Time Temperature Precipitation Wind Pressure Humidity
    00:00 +7°C° 0 mm 3 mps 762 mmHg 77%
    01:00 +7°C° 0 mm 3 mps 762 mmHg 78%
    02:00 +7°C° 0 mm 3 mps 762 mmHg 78%
    03:00 +7°C° 0 mm 3 mps 762 mmHg 78%
    04:00 +7°C° 0 mm 3 mps 762 mmHg 78%
    05:00 +7°C° 0 mm 3 mps 762 mmHg 79%
    06:00 +7°C° 0 mm 2 mps 763 mmHg 80%
    07:00 +7°C° 0 mm 2 mps 763 mmHg 81%
    08:00 +8°C° 0 mm 2 mps 763 mmHg 78%
    09:00 +9°C° 0 mm 2 mps 763 mmHg 75%
    10:00 +10°C° 0 mm 2 mps 763 mmHg 72%
    11:00 +10°C° 0 mm 2 mps 763 mmHg 68%
    12:00 +10°C° 0 mm 2 mps 763 mmHg 65%
    13:00 +11°C° 0 mm 3 mps 763 mmHg 62%
    14:00 +10°C° 0 mm 2 mps 763 mmHg 66%
    15:00 +10°C° 0 mm 2 mps 763 mmHg 70%
    16:00 +10°C° 0 mm 2 mps 763 mmHg 73%
    17:00 +10°C° 0 mm 1 mps 763 mmHg 76%
    18:00 +9°C° 0 mm 1 mps 763 mmHg 78%
    19:00 +9°C° 0 mm 1 mps 763 mmHg 80%
    20:00 +9°C° 0 mm 1 mps 763 mmHg 82%
    21:00 +8°C° 0 mm 1 mps 763 mmHg 83%
    22:00 +8°C° 0 mm 1 mps 763 mmHg 85%
    23:00 +8°C° 0 mm 1 mps 762 mmHg 84%
    Show more